Regional Weather Roundup
Issued by NWS

Home | Current Version | Previous Version | Graphics & Text | Print | Product List | Glossary On
Versions: 1 2 3 4 5 6 7 8 9 10 11 12 13 14 15 16 17 18 19 20 21 22 23 24 25 26 27 28 29 30 31 32 33 34 35 36 37 38 39 40 41 42 43 44 45 46 47 48 49 50
000
ASUS43 KLMK 301102
RWRKY
KENTUCKY REGIONAL WEATHER ROUNDUP
NATIONAL WEATHER SERVICE LOUISVILLE KY
700 AM EDT TUE JUN 30 2015

NOTE "FAIR" INDICATES FEW OR NO CLOUDS BELOW 12,000 FEET
WITH NO SIGNIFICANT WEATHER AND/OR OBSTRUCTIONS TO VISIBILITY.

KYZ001>023-026-027-061>063-070>075-301200-
WESTERN AND SOUTH CENTRAL KENTUCKY

CITY           SKY/WX    TMP DP  RH WIND       PRES   REMARKS
PADUCAH        CLEAR     69  66  90 CALM      29.89R
HENDERSON      PTCLDY    64  63  94 S6        29.86R
OWENSBORO      MOCLDY    68  66  93 S6        29.89R
HOPKINSVILLE   CLEAR     68  66  94 S6        29.90R
BOWLING GREEN  CLOUDY    68  65  90 S7        29.91S
GLASGOW        NOT AVBL
$$

KYZ024-025-028>034-038-045-046-053-301200-
NORTH CENTRAL KENTUCKY

CITY           SKY/WX    TMP DP  RH WIND       PRES   REMARKS
LOUISVILLE/SDF MOCLDY    69  63  81 S6        29.87S
LOUISVILLE/LOU MOCLDY    67  63  87 S3        29.88R
FORT KNOX      CLOUDY    65  63  95 SW2       29.88F
$$

KYZ035>037-039>044-047>052-055>060-089>105-301200-
NORTHEAST KENTUCKY

CITY           SKY/WX    TMP DP  RH WIND       PRES   REMARKS
LEXINGTON      CLEAR     65  64  97 SW7       29.91R FOG
COVINGTON      PTCLDY    65  63  93 S6        29.86R FOG
FRANKFORT      CLEAR     66  64  93 SW6       29.89R
$$

KYZ054-064>069-076>088-106>120-301200-
SOUTHEAST KENTUCKY

CITY           SKY/WX    TMP DP  RH WIND       PRES   REMARKS
JACKSON        MOCLDY    65  62  90 CALM      29.95R
LONDON         MOCLDY    67  61  81 S3        29.96R
SOMERSET       NOT AVBL
MIDDLESBORO    CLOUDY    66  64  93 CALM      29.98R
MONTICELLO     MOSUNNY   63  63 100 CALM      29.97R
$$




USA.gov is the U.S. government's official web portal to all federal, state and local government web resources and services.